Theta_e
320 320 320 320 320 320 320 320 320 320 321 321 321 321 320 321 318 307 300 309 315 322 318 310 305 307 307 306 308 305 296 293 295 296 293 294 293 292 292 292 290 291 292 296 299
320 321 320 320 320 320 320 319 319 320 320 321 321 320 321 320 307 303 312 319 318 317 306 304 305 304 301 303 302 300 297 294 295 294 293 294 294 292 289 289 290 290 294 298 297
321 321 320 320 320 320 319 319 319 319 320 321 320 320 321 313 303 301 317 316 315 311 305 303 304 303 300 300 298 298 295 296 295 295 295 294 292 293 289 289 292 290 291 295 295
321 321 320 319 319 319 319 319 319 319 320 320 319 321 319 307 299 303 317 314 313 306 304 304 303 300 298 296 297 294 295 295 295 293 293 292 293 290 291 290 292 294 295 295 294
321 320 320 319 318 318 319 318 319 319 320 319 320 321 311 304 299 306 318 312 306 305 301 301 299 299 296 294 296 294 293 294 292 292 291 292 290 291 291 294 293 294 295 294 294
320 320 319 318 318 318 318 318 319 319 320 319 321 318 307 302 303 306 303 303 303 304 301 300 298 298 295 293 293 293 294 292 292 292 293 290 291 290 292 294 293 293 292 293 294
320 319 318 318 317 318 318 318 318 319 319 319 320 310 306 299 302 305 305 301 303 302 302 301 300 300 298 293 294 294 292 291 292 293 292 291 290 290 293 293 293 292 292 294 295
319 319 318 317 317 317 317 316 317 317 318 319 317 308 300 304 304 305 305 304 304 304 302 301 302 300 297 294 294 291 292 290 291 293 291 290 287 295 294 291 291 291 291 293 294
318 318 317 316 316 317 317 316 316 317 315 312 306 307 300 305 303 304 304 301 302 303 303 301 302 299 297 294 292 292 287 289 292 292 291 289 288 293 292 291 290 291 290 291 292
317 316 315 315 316 316 314 313 316 312 308 306 305 304 303 300 303 302 304 302 301 302 303 303 300 296 292 291 283 285 286 289 289 290 290 288 289 294 296 291 289 290 290 290 291
317 315 316 316 315 314 310 309 306 307 303 297 299 300 300 302 303 304 304 302 303 301 296 298 294 286 286 287 288 287 286 286 292 290 288 288 290 293 295 296 289 290 289 289 291
317 315 315 314 314 313 308 307 300 303 299 301 300 300 301 301 300 302 303 300 301 295 298 295 288 288 289 289 287 287 286 288 291 291 288 287 288 291 291 291 292 292 291 289 290
316 315 314 313 312 310 304 300 304 306 303 300 300 301 300 301 299 298 299 299 295 294 292 290 287 290 289 288 288 289 285 283 282 287 289 286 286 287 286 287 289 289 291 291 290
315 315 313 312 310 304 301 303 305 307 299 298 299 300 302 302 298 301 300 297 296 292 291 289 289 289 287 288 287 282 286 286 285 280 277 285 277 287 285 284 285 285 287 288 289
315 314 312 310 306 302 301 304 306 305 288 299 299 303 302 299 298 299 299 299 293 293 292 288 287 286 288 286 287 286 287 284 282 277 276 280 276 286 286 285 285 287 287 287 289
314 312 312 310 308 303 305 306 306 298 286 295 299 297 297 298 297 299 298 299 297 293 292 286 287 287 285 288 286 288 287 287 282 280 276 277 277 282 284 284 284 285 287 288 288
312 310 310 308 305 307 307 308 297 288 295 293 293 295 293 293 294 294 293 289 289 286 285 287 285 285 287 284 286 285 283 279 278 278 279 280 276 282 286 286 285 286 286 287 287
311 308 310 307 309 309 309 302 287 292 291 294 292 292 290 292 291 292 290 288 287 288 285 283 282 284 286 283 281 281 282 278 271 275 278 281 276 285 285 286 286 288 288 288 287
310 312 312 307 308 308 305 292 290 290 292 291 292 287 289 291 287 289 289 287 285 286 286 282 285 282 283 284 282 281 280 280 275 275 274 279 285 285 287 284 284 286 288 286 286
311 310 309 308 307 306 299 295 290 291 292 291 285 287 284 287 286 287 288 288 284 285 285 284 280 284 280 283 281 283 282 278 279 274 276 279 278 280 283 283 284 285 286 288 290
309 303 307 307 304 302 294 290 291 290 291 289 288 285 285 284 285 285 286 286 287 285 285 284 282 280 281 280 279 277 277 277 280 277 273 271 278 286 286 287 285 287 287 287 287
308 298 309 306 299 293 292 289 291 289 290 290 288 286 286 287 285 286 286 288 288 287 282 281 285 280 284 275 277 279 286 281 279 277 280 281 280 287 282 280 280 282 286 289 290
303 302 311 306 293 291 289 291 291 289 289 289 288 289 288 286 282 288 287 288 288 287 283 282 281 275 279 278 277 275 277 280 282 279 279 278 280 286 282 287 287 288 287 286 287
305 299 303 302 298 293 289 291 289 290 290 289 288 288 286 286 288 284 287 286 287 287 291 289 282 280 278 280 281 277 281 282 282 280 280 283 284 287 286 286 284 280 281 283 284
302 294 294 293 295 293 292 288 289 288 289 289 286 287 284 282 285 285 288 287 287 290 286 284 276 282 285 286 285 284 286 285 282 283 281 283 284 287 284 281 279 274 277 278 281
301 298 299 297 295 293 291 289 290 291 289 289 285 290 289 283 288 286 290 290 290 286 284 285 281 281 282 286 284 282 284 284 284 285 286 286 284 283 283 279 282 281 278 276 281
305 304 301 297 294 291 293 293 290 293 295 296 293 290 289 291 290 291 291 291 291 287 283 280 280 279 279 284 283 279 280 281 277 276 277 280 279 281 278 281 282 280 280 282 282
Wind_Speed
10 10 10 10 10 10 9 9 10 10 11 11 10 9 9 10 12 2 7 8 9 17 13 8 5 2 5 3 1 1 2 5 6 4 3 3 3 3 2 2 1 4 5 8 15
10 11 11 11 11 10 10 10 10 11 11 11 10 9 9 7 5 9 5 11 11 10 6 6 1 3 2 2 0 1 2 2 3 3 4 5 5 8 2 4 4 6 6 10 10
11 11 11 12 11 11 10 10 10 10 10 10 9 9 8 5 4 5 12 11 10 9 3 5 6 4 2 1 4 2 2 3 4 5 5 1 3 1 4 6 9 11 13 11 8
13 13 13 12 12 11 10 10 10 10 9 9 9 8 6 4 1 5 13 10 7 6 4 3 5 3 2 1 2 2 3 3 3 3 4 2 8 3 9 2 5 6 17 15 12
14 13 13 12 12 11 10 10 10 9 8 9 9 8 4 3 4 7 10 7 3 4 4 5 4 4 1 4 2 3 3 0 2 1 3 5 6 7 9 10 7 4 14 14 11
14 13 13 12 11 11 10 10 10 10 9 9 8 6 4 1 3 8 7 5 8 6 7 7 5 6 5 4 3 1 1 3 4 3 5 2 5 2 7 9 9 8 8 10 11
14 13 13 12 11 11 11 11 10 9 9 9 7 4 2 3 1 5 5 1 4 5 3 2 5 3 4 5 2 3 3 5 6 3 1 1 7 12 7 3 6 11 8 9 10
14 14 13 13 12 12 11 11 10 9 8 8 5 4 2 1 6 6 8 3 1 3 2 3 6 4 3 3 3 4 3 3 3 3 2 1 9 2 5 10 8 9 9 9 10
15 15 15 14 13 12 11 10 10 8 7 7 3 4 3 2 1 5 4 4 6 2 1 3 3 1 2 3 2 4 4 7 3 2 1 5 9 2 5 6 8 9 9 9 9
15 16 15 14 13 11 10 6 4 6 5 5 4 2 2 4 3 4 4 3 3 3 3 3 3 2 5 6 1 5 6 6 8 1 5 8 19 16 13 12 11 10 10 9 8
16 15 15 13 12 11 7 2 2 2 7 3 2 2 2 6 3 3 3 5 4 5 3 2 3 3 5 4 3 3 5 9 10 4 6 8 17 20 13 13 9 9 10 10 9
17 15 15 12 11 11 4 3 3 2 1 0 1 2 1 1 2 5 12 2 3 2 5 1 2 5 1 1 2 4 8 7 6 4 8 10 25 20 5 5 3 10 7 11 10
17 15 15 13 8 4 5 4 3 4 3 2 1 2 1 4 3 6 8 3 4 3 5 1 3 2 2 2 4 4 3 4 6 11 7 10 8 3 3 5 8 7 5 5 13
17 15 15 14 2 3 3 2 3 3 3 3 2 2 1 1 1 2 3 1 2 2 3 4 2 1 2 1 2 4 3 5 7 7 4 6 6 3 3 5 1 0 2 6 2
16 14 13 9 4 3 3 4 4 1 3 2 2 1 1 2 2 1 1 3 2 2 0 1 1 1 2 3 3 5 4 5 2 2 5 3 4 9 1 5 5 6 3 2 5
14 13 14 2 3 2 3 4 2 2 7 2 1 2 3 1 2 1 2 3 2 1 3 4 1 4 3 2 2 8 6 4 3 1 3 3 4 6 3 2 5 4 5 3 1
12 9 6 3 1 3 3 1 2 3 1 2 1 3 1 2 0 3 1 5 2 4 2 3 3 2 2 2 2 2 6 5 6 2 5 7 1 10 4 5 3 4 5 6 5
10 8 3 2 2 3 2 0 3 1 4 0 1 3 3 4 1 1 2 2 1 2 2 1 6 2 4 3 3 3 5 5 5 3 6 5 6 7 6 5 5 7 6 7 5
9 2 2 3 2 2 1 0 4 3 3 5 2 2 4 2 1 3 4 1 2 3 6 1 2 2 5 2 2 1 0 1 0 1 2 6 5 2 5 6 5 6 5 3 3
3 2 2 3 1 1 1 3 1 3 3 3 2 0 3 2 2 1 4 1 2 1 1 1 3 1 2 1 1 1 1 3 1 3 5 5 6 5 2 5 6 7 6 7 7
2 2 0 3 0 0 1 1 2 2 3 3 4 3 1 2 1 3 2 1 1 4 0 3 3 1 4 6 8 1 0 1 1 3 4 4 6 5 4 3 2 7 3 2 3
2 2 1 1 2 1 1 2 2 1 1 0 1 1 2 4 3 4 2 3 4 7 4 1 4 4 6 0 1 1 4 5 4 4 3 3 8 6 3 5 4 6 8 9 8
3 3 3 1 1 2 2 2 1 1 2 1 2 2 1 3 3 4 1 3 5 5 7 6 3 3 5 3 2 3 5 4 2 1 10 8 8 1 5 8 7 8 8 8 9
3 3 3 4 1 3 3 1 2 0 2 1 2 1 2 4 7 4 3 3 5 3 5 5 3 8 10 7 4 4 7 8 8 5 12 12 22 10 6 5 5 5 5 7 7
5 3 1 3 3 4 1 1 2 2 2 2 2 6 5 3 3 6 5 4 5 6 5 5 6 7 12 13 10 13 13 12 14 18 16 19 17 13 9 5 3 4 3 2 3
3 4 2 3 3 4 3 3 1 2 3 4 4 5 7 6 5 6 8 4 5 4 5 2 5 3 9 11 15 20 17 18 19 17 18 20 17 2 0 1 2 4 4 2 2
4 2 1 4 2 2 2 4 2 2 6 5 5 5 6 6 4 7 7 7 8 6 8 6 2 1 13 3 6 8 13 12 1 1 4 3 2 3 4 7 6 5 2 1 2
Wind_Direction
329 334 332 329 330 330 336 334 333 332 338 337 337 335 332 322 302 244 43 323 313 318 319 273 259 216 245 135 311 244 308 269 339 46 77 83 163 341 355 117 322 141 66 97 126
333 336 331 326 330 330 328 330 328 332 331 333 331 328 328 325 275 74 344 333 327 330 314 344 339 169 173 125 45 247 252 40 356 15 13 138 229 153 208 201 193 106 89 116 128
344 338 333 335 331 325 322 324 327 325 326 324 325 321 324 299 262 47 354 346 337 317 272 302 291 279 224 305 38 17 311 6 67 19 334 218 230 96 228 234 193 186 157 152 156
344 341 338 329 322 317 321 328 327 322 322 319 319 317 329 246 34 30 358 343 321 285 279 283 239 244 283 125 59 260 65 353 41 28 317 330 337 266 218 275 49 69 161 157 173
346 339 332 323 317 319 326 327 322 320 320 315 312 314 281 188 41 357 352 322 316 279 31 355 314 349 329 83 258 314 102 190 115 229 277 326 264 252 271 233 128 87 141 162 174
343 335 326 323 320 322 319 315 317 313 307 302 302 326 242 65 314 360 355 1 8 351 32 3 9 325 76 47 354 61 196 161 184 212 240 262 272 70 241 214 158 150 176 167 177
339 330 327 323 323 320 317 311 307 302 297 295 297 284 354 105 4 340 358 27 345 13 32 23 311 322 315 140 168 169 273 193 202 199 266 278 263 226 209 154 217 163 197 177 183
337 331 328 327 324 318 316 311 300 291 286 279 287 265 68 94 321 20 352 192 150 46 48 316 316 93 10 145 210 240 193 286 155 171 141 304 275 353 133 151 218 179 193 185 185
342 336 334 330 325 316 305 302 286 280 263 274 249 235 97 157 344 8 42 345 290 211 180 262 258 164 180 251 254 220 315 343 4 129 338 198 278 193 168 201 216 204 192 182 174
344 340 338 333 326 316 307 280 276 286 234 244 259 244 94 2 343 315 46 280 313 290 230 233 226 234 39 16 61 328 337 339 307 61 239 257 262 266 262 208 211 196 183 176 181
345 338 337 332 325 320 319 232 219 182 44 26 33 296 57 327 119 63 345 312 220 244 3 73 64 50 37 45 350 309 292 280 286 63 322 264 282 283 286 282 201 218 177 168 181
346 338 338 330 317 307 289 358 75 19 92 221 177 142 59 325 276 47 342 306 284 8 334 298 85 68 20 10 297 283 284 293 317 80 345 300 294 292 309 313 243 202 202 165 166
345 340 340 335 318 323 63 51 338 325 251 129 29 13 4 319 63 345 358 294 20 44 355 7 80 112 291 268 353 285 300 354 291 329 281 325 290 157 68 43 12 16 346 149 169
341 338 336 329 348 320 59 16 325 316 251 153 153 131 214 341 162 360 12 40 118 63 18 67 110 293 266 143 359 301 22 320 328 10 296 27 286 331 131 132 126 127 334 315 252
339 333 337 359 305 46 355 326 320 263 328 16 88 61 228 337 325 149 293 246 56 65 154 226 150 332 296 51 22 260 347 269 276 285 26 191 63 275 104 58 82 42 80 336 307
340 331 325 334 82 27 315 305 261 53 256 115 3 324 259 165 119 186 189 113 347 194 80 85 33 35 21 307 221 306 303 218 182 171 333 201 111 294 46 12 28 94 105 118 63
336 331 356 314 52 328 302 233 352 193 76 118 63 18 344 336 268 24 45 13 58 30 217 141 115 113 327 292 224 310 16 339 343 299 229 174 32 243 93 60 29 97 115 113 100
327 312 2 57 354 313 251 79 258 314 66 78 346 250 270 12 186 283 242 203 211 283 303 83 315 33 359 89 177 31 139 147 260 291 309 199 245 260 106 80 86 89 121 128 137
319 192 187 40 352 288 293 183 258 12 327 351 185 263 164 178 262 257 172 93 50 31 171 344 224 114 39 36 87 154 259 76 78 216 62 247 258 93 128 96 121 115 96 99 154
291 245 87 349 335 279 38 252 16 7 323 256 263 1 305 95 276 212 190 325 161 22 221 32 318 103 138 160 31 154 71 76 85 283 281 284 277 237 145 147 165 143 173 167 176
271 299 83 82 267 23 185 34 81 65 350 351 340 305 312 314 299 270 280 189 110 154 257 110 102 220 129 197 177 152 15 29 17 170 218 296 262 209 186 64 25 16 66 123 211
302 303 252 171 77 46 85 18 343 72 160 69 300 336 275 359 275 261 305 105 149 157 169 71 162 245 237 245 2 37 177 174 170 246 240 260 272 51 65 67 44 8 352 347 358
353 314 239 94 58 84 182 176 311 202 203 197 226 213 84 261 271 238 255 170 174 179 175 193 210 320 301 18 11 191 199 179 217 233 223 253 256 97 83 67 31 348 346 1 355
359 355 4 54 96 51 17 45 202 148 270 295 296 287 236 239 229 276 261 182 169 207 128 156 233 190 231 228 126 203 196 204 192 228 264 237 273 285 45 25 30 3 12 12 15
13 38 78 337 27 355 165 106 294 252 238 214 242 234 189 263 239 228 232 159 187 190 189 166 217 251 258 274 277 269 265 226 219 241 252 279 279 306 4 57 24 282 327 14 15
37 8 342 278 300 287 167 220 256 347 163 239 225 307 208 208 230 295 314 291 277 134 207 134 275 321 264 262 259 263 264 259 249 254 262 271 281 335 282 125 344 273 271 258 135
5 68 339 289 322 10 306 6 320 34 280 303 309 316 283 285 340 308 295 289 271 186 188 155 205 245 279 286 324 262 238 236 133 106 179 264 81 282 322 322 307 287 221 333 65